, AK

(GMT )
Kotzebue

Weather History for PAOT - May, 2013

Change the Weather History Date:

Saturday, May 11, 2013

  Actual Average Record
Temperature  
Mean Temperature 31 °F 30 °F  
Max Temperature 33 °F 36 °F 56 °F (1983)
Min Temperature 29 °F 24 °F -1 °F (1965)
Degree Days  
Heating Degree Days 34 35  
Month to date heating degree days 489 417  
Since 1 July heating degree days 14392 14195  
Cooling Degree Days 0 0  
Month to date cooling degree days 0 0  
Year to date cooling degree days 0 0  
Moisture  
Dew Point 29 °F    
Average Humidity 0    
Maximum Humidity 0    
Minimum Humidity 0    
Precipitation  
Precipitation T in 0.01 in 0.33 in (1968)
Month to date precipitation 0.14 0.17  
Year to date precipitation 2.88 2.43  
Snow  
Snow T in 0.10 in 1.20 in (1992)
Month to date snowfall 1.4 0.8  
Since 1 July snowfall 32.5 59.4  
Snow Depth 4.00 in    
Sea Level Pressure  
Sea Level Pressure 29.99 in    
Wind  
Wind Speed 8 mph (WSW)    
Max Wind Speed 14 mph    
Max Gust Speed 17 mph    
Visibility 5 miles    
Events Fog    
T = Trace of Precipitation, MM = Missing Value Source: NWS Daily Summary

Daily Weather History Graph

Daily Weather History Graph

Search for Another Location

Airport or City:

Trip Planner

Search our weather history database for the weather conditions in past years. The results will help you decide how hot, cold, wet, or windy it might be!

Date:

Astronomy

May. 11, 2013 Rise Set
Actual Time 5:14 AM AKDT 12:22 AM AKDT
Civil Twilight 3:19 AM AKDT 2:14 AM AKDT
Nautical Twilight Sun does not set Sun does not set
Astronomical Twilight Sun does not set Sun does not set
Moon 6:13 AM AKDT (5/11) 1:35 AM AKDT (5/11)
Length of Visible Light 22h 55m
Length of Day
19h 08m
Waxing Crescent, 3% of the Moon is Illuminated
May 11
Waxing Crescent
May 17
First Quarter
May 24
Full
May 31
Last Quarter
Jun 8
New

Hourly Weather History & Observations

Time (AKDT) Temp. Windchill Dew Point Humidity Pressure Visibility Wind Dir Wind Speed Gust Speed Precip Events Conditions
12:53 AM 30.9 °F 27.5 °F 28.9 °F 92% 30.11 in 10.0 mi West 3.5 mph - N/A   Overcast
1:53 AM 30.9 °F 26.2 °F 28.9 °F 92% 30.11 in 9.0 mi West 4.6 mph - N/A   Overcast
2:51 AM 30.2 °F 24.3 °F 30.2 °F 100% 30.10 in 6.0 mi WNW 5.8 mph - N/A   Overcast
2:53 AM 30.9 °F 25.2 °F 30.0 °F 96% 30.10 in 7.0 mi WNW 5.8 mph - N/A   Overcast
3:53 AM 28.9 °F 21.1 °F 27.0 °F 92% 30.09 in 10.0 mi NW 8.1 mph - N/A   Overcast
4:08 AM 28.4 °F 21.2 °F 28.4 °F 100% 30.09 in 10.0 mi NW 6.9 mph - N/A   Overcast
4:36 AM 30.2 °F 20.8 °F 28.4 °F 93% 30.09 in 10.0 mi WNW 11.5 mph - N/A   Overcast
4:53 AM 30.0 °F 20.5 °F 28.0 °F 92% 30.09 in 10.0 mi WNW 11.5 mph - N/A   Overcast
5:23 AM 30.2 °F 21.9 °F 28.4 °F 93% 30.08 in 10.0 mi WNW 9.2 mph - N/A   Overcast
5:53 AM 28.9 °F 23.9 °F 28.0 °F 96% 30.08 in 10.0 mi WNW 4.6 mph - N/A   Overcast
6:00 AM 28.4 °F 22.2 °F 28.4 °F 100% 30.08 in 10.0 mi WNW 5.8 mph - N/A   Overcast
6:53 AM 30.0 °F 25.2 °F 28.0 °F 92% 30.07 in 10.0 mi West 4.6 mph - N/A   Overcast
7:53 AM 30.0 °F 23.2 °F 28.0 °F 92% 30.07 in 10.0 mi West 6.9 mph - N/A   Overcast
8:11 AM 30.2 °F 23.4 °F 28.4 °F 93% 30.06 in 10.0 mi West 6.9 mph - N/A   Overcast
8:53 AM 30.0 °F 20.5 °F 28.0 °F 92% 30.06 in 9.0 mi West 11.5 mph - N/A   Overcast
9:39 AM 30.2 °F 21.3 °F 30.2 °F 100% 30.06 in 6.0 mi West 10.4 mph - N/A   Overcast
9:53 AM 30.9 °F 23.5 °F 30.0 °F 96% 30.05 in 6.0 mi West 8.1 mph - N/A   Overcast
10:53 AM 32.0 °F 23.6 °F 30.0 °F 92% 30.05 in 8.0 mi West 10.4 mph - N/A   Overcast
11:53 AM 32.0 °F 24.2 °F 30.9 °F 96% 30.04 in 6.0 mi West 9.2 mph - N/A   Overcast
12:53 PM 33.1 °F 25.5 °F 30.9 °F 92% 30.03 in 3.0 mi West 9.2 mph - N/A   Overcast
1:53 PM 33.1 °F 24.9 °F 30.9 °F 92% 30.02 in 10.0 mi West 10.4 mph - N/A   Overcast
2:33 PM 32.0 °F 23.6 °F 30.2 °F 93% 30.02 in 1.2 mi West 10.4 mph - N/A   Overcast
2:47 PM 32.0 °F 22.5 °F 30.2 °F 93% 30.01 in 0.8 mi West 12.7 mph - N/A   Mist
2:53 PM 32.0 °F 23.6 °F 30.0 °F 92% 30.01 in 1.0 mi West 10.4 mph - N/A   Mist
3:18 PM 32.0 °F 22.5 °F 30.2 °F 93% 30.00 in 0.5 mi West 12.7 mph - N/A Fog Fog
3:53 PM 32.0 °F 23.6 °F 30.0 °F 92% 29.99 in 0.5 mi WSW 10.4 mph - N/A Fog Fog
4:09 PM 30.2 °F 21.3 °F 30.2 °F 100% 29.99 in 1.0 mi West 10.4 mph - N/A   Overcast
4:16 PM 30.2 °F 21.3 °F 30.2 °F 100% 29.98 in 0.5 mi West 10.4 mph - N/A Fog Light Freezing Fog
4:23 PM 30.2 °F 21.3 °F 30.2 °F 100% 29.98 in 0.8 mi West 10.4 mph - N/A   Overcast
4:36 PM 30.2 °F 20.8 °F 30.2 °F 100% 29.98 in 1.0 mi WSW 11.5 mph - N/A   Mist
4:53 PM 30.9 °F 22.8 °F 30.0 °F 96% 29.98 in 1.0 mi West 9.2 mph - N/A   Overcast
5:03 PM 30.2 °F 21.9 °F 30.2 °F 100% 29.97 in 0.5 mi West 9.2 mph - N/A Fog Light Freezing Fog
5:53 PM 30.9 °F 23.5 °F 30.9 °F 100% 29.96 in 0.2 mi West 8.1 mph - N/A Fog Light Freezing Fog
6:53 PM 30.9 °F 23.5 °F 30.0 °F 96% 29.94 in 0.2 mi WSW 8.1 mph - N/A Fog Light Freezing Fog
7:08 PM 30.2 °F 21.9 °F 30.2 °F 100% 29.93 in 0.2 mi WSW 9.2 mph - N/A Fog Light Freezing Fog
7:23 PM 32.0 °F 25.6 °F 30.2 °F 93% 29.92 in 1.0 mi West 6.9 mph - N/A   Mist
7:27 PM 32.0 °F 24.8 °F 30.2 °F 93% 29.92 in 3.0 mi WSW 8.1 mph - N/A   Overcast
7:41 PM 30.2 °F 23.4 °F 30.2 °F 100% 29.92 in 1.8 mi West 6.9 mph - N/A   Overcast
7:53 PM 30.9 °F 25.2 °F 30.0 °F 96% 29.91 in 0.5 mi WSW 5.8 mph - N/A Fog Light Freezing Fog
8:15 PM 30.2 °F 23.4 °F 30.2 °F 100% 29.90 in 1.0 mi SW 6.9 mph - N/A   Mist
8:20 PM 30.2 °F 23.4 °F 30.2 °F 100% 29.90 in 0.5 mi SW 6.9 mph - N/A Fog Light Freezing Fog
8:42 PM 30.2 °F 24.3 °F 30.2 °F 100% 29.90 in 0.2 mi SW 5.8 mph - N/A Fog Light Freezing Fog
8:53 PM 30.0 °F 25.2 °F 28.9 °F 96% 29.89 in 0.2 mi SW 4.6 mph - N/A Fog Light Freezing Fog
9:30 PM 30.2 °F 24.3 °F 28.4 °F 93% 29.87 in 0.5 mi South 5.8 mph - N/A Fog Light Freezing Fog
9:33 PM 30.2 °F 24.3 °F 28.4 °F 93% 29.87 in 1.0 mi South 5.8 mph - N/A   Mist
9:41 PM 30.2 °F 24.3 °F 28.4 °F 93% 29.87 in 5.0 mi South 5.8 mph - N/A   Scattered Clouds
9:53 PM 30.9 °F 24.3 °F 28.9 °F 92% 29.86 in 10.0 mi South 6.9 mph - N/A   Scattered Clouds
10:00 PM 30.2 °F 23.4 °F 28.4 °F 93% 29.86 in 10.0 mi South 6.9 mph - N/A   Mostly Cloudy
10:29 PM 30.2 °F 21.9 °F 28.4 °F 93% 29.84 in 10.0 mi SSW 9.2 mph - N/A   Partly Cloudy
10:53 PM 30.0 °F 21.1 °F 28.9 °F 96% 29.84 in 10.0 mi SSW 10.4 mph - N/A   Scattered Clouds
11:53 PM 30.0 °F 22.4 °F 28.9 °F 96% 29.81 in 10.0 mi SSW 8.1 mph - N/A   Overcast